This demonstration page uses our WeatherBlox Daily Observations layout. Learn more.

Hourly Observations for December 17, 2019

Temp ( °F °C ) Dew Point ( °F °C ) Humidity (%) Winds ( mph kmh ) Pressure ( in mb ) Visibility ( mi km ) Precip ( " mm )
12:15 am 00:15 Clear 22 -5.7 17 -8.3 82 82 WNW 8 13 30.4 1030 10 16.0934 0 0
12:35 am 00:35 Clear 21 -6 17 -8.6 82 82 WNW 8 13 30.4 1030 10 16.0934 0 0
12:55 am 00:55 Clear 20 -6.8 16 -9.1 84 84 WNW 8 13 30.41 1030 10 16.0934 0 0
1:15 am 01:15 Clear 19 -7.1 15 -9.3 85 85 WNW 6 9 30.42 1030 10 16.0934 0 0
1:35 am 01:35 Clear 21 -6.3 17 -8.6 84 84 NW 12 19 30.42 1030 10 16.0934 0 0
1:55 am 01:55 Clear 21 -6.2 16 -8.7 83 83 WNW 9 15 30.42 1030 10 16.0934 0 0
2:15 am 02:15 Clear 20 -6.5 16 -9 83 83 WNW 10 17 30.43 1030 10 16.0934 0 0
2:35 am 02:35 Clear 20 -6.7 16 -9.1 83 83 WNW 10 17 30.43 1031 10 16.0934 0 0
2:55 am 02:55 Clear 19 -7 15 -9.3 84 84 NW 10 17 30.45 1031 10 16.0934 0 0
3:15 am 03:15 Clear 19 -7.1 15 -9.5 83 83 NW 9 15 30.45 1031 10 16.0934 0 0
3:35 am 03:35 Clear 19 -7.2 15 -9.6 83 83 WNW 9 15 30.45 1031 10 16.0934 0 0
3:55 am 03:55 Clear 19 -7.1 15 -9.7 82 82 WNW 12 19 30.44 1031 10 16.0934 0 0
4:15 am 04:15 Clear 19 -7.4 14 -9.9 83 83 WNW 7 11 30.44 1031 10 16.0934 0 0
4:35 am 04:35 Clear 18 -7.6 14 -10 83 83 WNW 7 11 30.44 1031 10 16.0934 0 0
4:55 am 04:55 Clear 19 -7.1 14 -9.9 81 81 WNW 10 17 30.44 1031 10 16.0934 0 0
5:15 am 05:15 Clear 19 -7 14 -10 79 79 WNW 9 15 30.44 1031 10 16.0934 0 0
5:35 am 05:35 Clear 19 -7.1 14 -10.2 79 79 WNW 12 19 30.44 1031 10 16.0934 0 0
5:55 am 05:55 Clear 19 -7.1 13 -10.3 78 78 NW 9 15 30.44 1031 10 16.0934 0 0
6:15 am 06:15 Clear 19 -7.2 13 -10.5 78 78 WNW 8 13 30.44 1031 10 16.0934 0 0
6:35 am 06:35 Clear 19 -7.5 13 -10.6 79 79 WNW 7 11 30.44 1031 10 16.0934 0 0
6:55 am 06:55 Clear 19 -7.5 13 -10.7 78 78 WNW 7 11 30.44 1031 10 16.0934 0 0
7:15 am 07:15 Clear 17 -8.1 12 -10.9 81 81 W 8 13 30.45 1031 10 16.0934 0 0
7:35 am 07:35 Clear 18 -7.9 12 -10.9 79 79 W 8 13 30.45 1031 10 16.0934 0 0
7:55 am 07:55 Sunny 17 -8.5 12 -11.1 82 82 W 7 11 30.47 1032 10 16.0934 0 0
8:15 am 08:15 Sunny 17 -8.2 13 -10.7 82 82 W 8 13 30.47 1032 10 16.0934 0 0
8:35 am 08:35 Sunny 18 -8 13 -10.5 82 82 W 8 13 30.47 1032 10 16.0934 0 0
8:55 am 08:55 Sunny 19 -7.2 14 -10 81 81 W 8 13 30.46 1031 10 16.0934 0 0
9:15 am 09:15 Sunny 20 -6.5 15 -9.5 80 80 W 8 13 30.45 1031 10 16.0934 0 0
9:35 am 09:35 Sunny 22 -5.6 16 -9 77 77 W 8 13 30.44 1031 10 16.0934 0 0
9:55 am 09:55 Sunny 24 -4.5 17 -8.6 73 73 W 10 17 30.43 1030 10 16.0934 0 0
10:15 am 10:15 Sunny 26 -3.4 18 -8 71 71 W 10 17 30.42 1030 10 16.0934 0 0
10:35 am 10:35 Sunny 28 -2.3 19 -7.5 68 68 W 10 17 30.41 1030 10 16.0934 0 0
10:55 am 10:55 Sunny 29 -1.7 18 -7.7 64 64 W 10 17 30.39 1029 10 16.0934 0 0
11:15 am 11:15 Sunny 30 -1.2 20 -6.9 66 66 W 10 17 30.39 1029 10 16.0934 0 0
11:35 am 11:35 Sunny 30 -1 20 -6.5 67 67 W 12 19 30.38 1029 10 16.0934 0 0
11:55 am 11:55 Sunny 31 -0.5 21 -6.2 66 66 W 13 20 30.36 1028 10 16.0934 0 0
12:15 pm 12:15 Sunny 32 0 22 -5.4 67 67 W 12 19 30.34 1027 10 16.0934 0 0
12:35 pm 12:35 Sunny 33 0.5 23 -4.9 67 67 W 10 17 30.33 1027 10 16.0934 0 0
12:55 pm 12:55 Sunny 34 1 23 -5 65 65 W 15 24 30.32 1027 10 16.0934 0 0
1:15 pm 13:15 Sunny 34 1.2 23 -5.1 63 63 W 15 24 30.31 1027 10 16.0934 0 0
1:35 pm 13:35 Sunny 36 2 22 -5.3 59 59 W 12 19 30.29 1026 10 16.0934 0 0
1:55 pm 13:55 Sunny 37 2.5 22 -5.8 55 55 W 12 19 30.28 1025 10 16.0934 0 0
2:15 pm 14:15 Sunny 37 3 21 -6.1 52 52 W 13 20 30.28 1025 10 16.0934 0 0
2:35 pm 14:35 Sunny 38 3.5 23 -5.2 53 53 WNW 9 15 30.27 1025 10 16.0934 0 0
2:55 pm 14:55 Sunny 38 3.6 20 -6.5 48 48 WNW 14 22 30.27 1025 10 16.0934 0 0
3:15 pm 15:15 Sunny 38 3.6 21 -5.9 50 50 WNW 10 17 30.27 1025 10 16.0934 0 0
3:35 pm 15:35 Sunny 38 3.6 22 -5.3 53 53 W 9 15 30.27 1025 10 16.0934 0 0
3:55 pm 15:55 Sunny 38 3.5 23 -5.1 54 54 W 10 17 30.27 1025 10 16.0934 0 0
4:15 pm 16:15 Sunny 37 3 24 -4.4 59 59 NW 7 11 30.29 1026 10 16.0934 0 0
4:35 pm 16:35 Sunny 35 1.7 24 -4.7 63 63 NW 9 15 30.31 1026 10 16.0934 0 0
4:55 pm 16:55 Sunny 34 1.2 23 -5 64 64 WNW 7 11 30.3 1026 10 16.0934 0 0
5:15 pm 17:15 Clear 33 0.5 23 -5.1 66 66 W 8 13 30.32 1027 10 16.0934 0 0
5:35 pm 17:35 Clear 31 -0.4 23 -5.2 70 70 W 7 11 30.32 1027 10 16.0934 0 0
5:55 pm 17:55 Clear 31 -0.3 22 -5.5 68 68 W 8 13 30.33 1027 10 16.0934 0 0
6:15 pm 18:15 Clear 31 -0.7 23 -5.2 72 72 W 9 15 30.34 1028 10 16.0934 0 0
6:35 pm 18:35 Clear 30 -1 22 -5.5 72 72 W 9 15 30.36 1028 10 16.0934 0 0
6:55 pm 18:55 Clear 30 -1.3 22 -5.7 72 72 W 9 15 30.35 1028 10 16.0934 0 0
7:15 pm 19:15 Clear 29 -1.5 22 -5.7 73 73 WNW 8 13 30.36 1028 10 16.0934 0 0
7:35 pm 19:35 Clear 28 -2 21 -6 74 74 WNW 7 11 30.37 1028 10 16.0934 0 0
7:55 pm 19:55 Clear 28 -2.5 21 -6 77 77 WNW 6 9 30.37 1028 10 16.0934 0 0
8:15 pm 20:15 Clear 28 -2.5 21 -6 77 77 WNW 7 11 30.37 1028 10 16.0934 0 0
8:35 pm 20:35 Clear 27 -2.8 21 -6.2 78 78 WNW 6 9 30.37 1029 10 16.0934 0 0
8:55 pm 20:55 Clear 27 -2.8 21 -6.1 78 78 WNW 7 11 30.36 1028 10 16.0934 0 0
9:15 pm 21:15 Clear 27 -2.7 21 -6 78 78 WNW 7 11 30.37 1029 10 16.0934 0 0
9:35 pm 21:35 Clear 26 -3.6 20 -6.5 81 81 W 5 7 30.38 1029 10 16.0934 0 0
9:55 pm 21:55 Clear 26 -3.6 21 -6.2 82 82 W 6 9 30.38 1029 10 16.0934 0 0
10:15 pm 22:15 Clear 26 -3.1 21 -5.9 81 81 WNW 5 7 30.37 1028 10 16.0934 0 0
10:35 pm 22:35 Clear 27 -2.8 21 -6 79 79 W 5 7 30.36 1028 10 16.0934 0 0
10:55 pm 22:55 Clear 26 -3.6 20 -6.4 81 81 W 5 7 30.37 1028 10 16.0934 0 0
11:15 pm 23:15 Clear 26 -3.5 21 -6.2 82 82 W 7 11 30.37 1028 10 16.0934 0 0
11:35 pm 23:35 Clear 26 -3.5 21 -6.3 81 81 W 5 7 30.37 1028 10 16.0934 0 0
11:55 pm 23:55 Clear 24 -4.3 20 -6.7 84 84 SW 5 7 30.38 1029 10 16.0934 0 0

Powered by AerisWeather